When you browse on this site, cookies collect data to enhance your experience and personalize the content and advertising you see.
Visit our Privacy Policy to learn more. By continuing to use the site, you agree to this use of cookies and data.
  • In Belgium
  • List of Countries
  • For 7 days
  • Water Temperature
  • Satellite Maps
  • Weather Map
  • Weather Widgets
  • user-avatar
    Login

    Hourly Weather Paramaribo

    Today, 14 December, Friday

    Time Temperature Precipitation Wind Pressure Humidity
    00:00 +23°C° 0 mm 4 mps 760 mmHg 95%
    01:00 +22°C° 0 mm 4 mps 759 mmHg 97%
    02:00 +22°C° 0 mm 3 mps 759 mmHg 98%
    03:00 +22°C° 0.1 mm 3 mps 759 mmHg 98%
    04:00 +22°C° 0.1 mm 3 mps 759 mmHg 98%
    05:00 +22°C° 0.1 mm 3 mps 760 mmHg 98%
    06:00 +25°C° 0.1 mm 4 mps 760 mmHg 92%
    07:00 +26°C° 0.1 mm 4 mps 760 mmHg 86%
    08:00 +28°C° 0.1 mm 4 mps 761 mmHg 80%
    09:00 +29°C° 0.2 mm 4 mps 761 mmHg 71%
    10:00 +32°C° 0.2 mm 4 mps 761 mmHg 63%
    11:00 +33°C° 0.2 mm 4 mps 762 mmHg 55%
    12:00 +34°C° 0.1 mm 5 mps 761 mmHg 53%
    13:00 +34°C° 0.1 mm 5 mps 760 mmHg 52%
    14:00 +34°C° 0.1 mm 5 mps 760 mmHg 50%
    15:00 +33°C° 0 mm 5 mps 760 mmHg 55%
    16:00 +32°C° 0 mm 5 mps 759 mmHg 59%
    17:00 +29°C° 0 mm 4 mps 759 mmHg 64%
    18:00 +28°C° 0 mm 4 mps 759 mmHg 72%
    19:00 +26°C° 0 mm 4 mps 760 mmHg 80%
    20:00 +25°C° 0 mm 4 mps 760 mmHg 88%
    21:00 +25°C° 0 mm 4 mps 761 mmHg 91%
    22:00 +23°C° 0 mm 4 mps 761 mmHg 94%
    23:00 +23°C° 0 mm 4 mps 761 mmHg 97%

    Tomorrow, 15 December, Saturday

    Time Temperature Precipitation Wind Pressure Humidity
    00:00 +23°C° 0 mm 4 mps 761 mmHg 97%
    01:00 +22°C° 0 mm 3 mps 760 mmHg 98%
    02:00 +22°C° 0 mm 3 mps 760 mmHg 99%
    03:00 +22°C° 0 mm 3 mps 760 mmHg 99%
    04:00 +22°C° 0 mm 3 mps 760 mmHg 99%
    05:00 +22°C° 0 mm 3 mps 760 mmHg 99%
    06:00 +25°C° 0.1 mm 3 mps 761 mmHg 92%
    07:00 +26°C° 0.1 mm 3 mps 761 mmHg 84%
    08:00 +28°C° 0.1 mm 3 mps 762 mmHg 77%
    09:00 +30°C° 0.1 mm 3 mps 762 mmHg 68%
    10:00 +31°C° 0.1 mm 3 mps 762 mmHg 59%
    11:00 +34°C° 0.1 mm 3 mps 762 mmHg 50%
    12:00 +34°C° 0.1 mm 3 mps 761 mmHg 51%
    13:00 +34°C° 0.1 mm 3 mps 760 mmHg 51%
    14:00 +34°C° 0.1 mm 3 mps 760 mmHg 52%
    15:00 +33°C° 0 mm 4 mps 760 mmHg 56%
    16:00 +32°C° 0 mm 4 mps 759 mmHg 61%
    17:00 +30°C° 0 mm 4 mps 759 mmHg 65%
    18:00 +28°C° 0 mm 4 mps 760 mmHg 71%
    19:00 +27°C° 0 mm 4 mps 760 mmHg 77%
    20:00 +25°C° 0 mm 4 mps 761 mmHg 83%
    21:00 +25°C° 0 mm 4 mps 761 mmHg 87%
    22:00 +23°C° 0 mm 4 mps 761 mmHg 90%
    23:00 +24°C° 0 mm 3 mps 761 mmHg 94%

    Day after tomorrow, 16 December, Sunday

    Time Temperature Precipitation Wind Pressure Humidity
    00:00 +22°C° 0 mm 3 mps 761 mmHg 95%
    01:00 +22°C° 0 mm 3 mps 760 mmHg 97%
    02:00 +22°C° 0 mm 3 mps 760 mmHg 99%
    03:00 +22°C° 0 mm 3 mps 760 mmHg 99%
    04:00 +22°C° 0 mm 3 mps 760 mmHg 99%
    05:00 +21°C° 0 mm 3 mps 760 mmHg 99%
    06:00 +24°C° 0 mm 3 mps 761 mmHg 91%
    07:00 +26°C° 0 mm 3 mps 761 mmHg 83%
    08:00 +27°C° 0 mm 3 mps 762 mmHg 75%
    09:00 +29°C° 0 mm 3 mps 762 mmHg 67%
    10:00 +31°C° 0 mm 3 mps 762 mmHg 59%
    11:00 +34°C° 0 mm 3 mps 762 mmHg 51%
    12:00 +34°C° 0 mm 3 mps 761 mmHg 52%
    13:00 +34°C° 0 mm 4 mps 760 mmHg 53%
    14:00 +34°C° 0 mm 4 mps 759 mmHg 53%
    15:00 +33°C° 0 mm 4 mps 759 mmHg 57%
    16:00 +32°C° 0 mm 4 mps 759 mmHg 60%
    17:00 +30°C° 0 mm 4 mps 759 mmHg 64%
    18:00 +28°C° 0 mm 4 mps 759 mmHg 71%
    19:00 +27°C° 0 mm 4 mps 759 mmHg 77%
    20:00 +25°C° 0 mm 4 mps 760 mmHg 84%
    21:00 +25°C° 0 mm 4 mps 760 mmHg 88%
    22:00 +24°C° 0 mm 3 mps 760 mmHg 92%
    23:00 +24°C° 0 mm 3 mps 760 mmHg 97%

    17 December, Monday

    Time Temperature Precipitation Wind Pressure Humidity
    00:00 +22°C° 0 mm 3 mps 760 mmHg 98%
    01:00 +22°C° 0 mm 3 mps 759 mmHg 98%
    02:00 +22°C° 0 mm 3 mps 759 mmHg 99%
    03:00 +22°C° 0 mm 3 mps 759 mmHg 99%
    04:00 +22°C° 0 mm 3 mps 759 mmHg 99%
    05:00 +23°C° 0 mm 2 mps 759 mmHg 99%
    06:00 +24°C° 0 mm 3 mps 760 mmHg 92%
    07:00 +26°C° 0 mm 3 mps 760 mmHg 85%
    08:00 +28°C° 0 mm 3 mps 761 mmHg 77%
    09:00 +29°C° 0 mm 3 mps 761 mmHg 70%
    10:00 +31°C° 0 mm 3 mps 761 mmHg 63%
    11:00 +33°C° 0 mm 3 mps 761 mmHg 56%
    12:00 +31°C° 0.6 mm 3 mps 760 mmHg 66%
    13:00 +30°C° 0.6 mm 3 mps 759 mmHg 75%
    14:00 +29°C° 0.6 mm 4 mps 758 mmHg 85%
    15:00 +28°C° 0.2 mm 4 mps 758 mmHg 87%
    16:00 +28°C° 0.2 mm 3 mps 758 mmHg 90%
    17:00 +27°C° 0.2 mm 3 mps 758 mmHg 93%
    18:00 +26°C° 0 mm 3 mps 759 mmHg 95%
    19:00 +25°C° 0 mm 3 mps 759 mmHg 97%
    20:00 +25°C° 0 mm 3 mps 760 mmHg 98%
    21:00 +25°C° 0 mm 3 mps 760 mmHg 99%
    22:00 +24°C° 0 mm 3 mps 760 mmHg 99%
    23:00 +24°C° 0 mm 3 mps 760 mmHg 99%

    18 December, Tuesday

    Time Temperature Precipitation Wind Pressure Humidity
    00:00 +24°C° 0 mm 3 mps 759 mmHg 99%
    01:00 +24°C° 0 mm 3 mps 759 mmHg 99%
    02:00 +24°C° 0 mm 3 mps 758 mmHg 99%
    03:00 +24°C° 0 mm 3 mps 759 mmHg 99%
    04:00 +24°C° 0 mm 2 mps 759 mmHg 99%
    05:00 +24°C° 0 mm 2 mps 759 mmHg 99%
    06:00 +25°C° 0.2 mm 2 mps 759 mmHg 96%
    07:00 +26°C° 0.2 mm 3 mps 760 mmHg 94%
    08:00 +27°C° 0.2 mm 3 mps 761 mmHg 91%
    09:00 +28°C° 0.8 mm 3 mps 761 mmHg 89%
    10:00 +28°C° 0.8 mm 3 mps 760 mmHg 88%
    11:00 +29°C° 0.8 mm 3 mps 760 mmHg 86%
    12:00 +29°C° 0.7 mm 3 mps 759 mmHg 88%
    13:00 +29°C° 0.7 mm 3 mps 759 mmHg 89%
    14:00 +28°C° 0.7 mm 4 mps 758 mmHg 91%
    15:00 +28°C° 0.3 mm 4 mps 758 mmHg 92%
    16:00 +27°C° 0.3 mm 4 mps 758 mmHg 94%
    17:00 +27°C° 0.3 mm 4 mps 758 mmHg 96%
    18:00 +26°C° 0 mm 4 mps 758 mmHg 97%
    19:00 +26°C° 0 mm 3 mps 759 mmHg 98%
    20:00 +25°C° 0 mm 3 mps 759 mmHg 99%
    21:00 +25°C° 0 mm 3 mps 759 mmHg 99%
    22:00 +25°C° 0 mm 3 mps 760 mmHg 99%
    23:00 +24°C° 0 mm 3 mps 760 mmHg 99%

    19 December, Wednesday

    Time Temperature Precipitation Wind Pressure Humidity
    00:00 +24°C° 0.1 mm 3 mps 759 mmHg 99%
    01:00 +24°C° 0.1 mm 3 mps 759 mmHg 99%
    02:00 +24°C° 0.1 mm 3 mps 758 mmHg 99%
    03:00 +24°C° 0 mm 3 mps 758 mmHg 99%
    04:00 +24°C° 0 mm 3 mps 759 mmHg 99%
    05:00 +24°C° 0 mm 3 mps 759 mmHg 99%
    06:00 +25°C° 0 mm 3 mps 759 mmHg 97%
    07:00 +26°C° 0 mm 3 mps 760 mmHg 95%
    08:00 +26°C° 0 mm 3 mps 761 mmHg 93%
    09:00 +28°C° 0.2 mm 3 mps 760 mmHg 87%
    10:00 +29°C° 0.2 mm 4 mps 760 mmHg 81%
    11:00 +32°C° 0.2 mm 4 mps 760 mmHg 76%
    12:00 +30°C° 0.6 mm 4 mps 759 mmHg 79%
    13:00 +30°C° 0.6 mm 4 mps 758 mmHg 82%
    14:00 +29°C° 0.6 mm 4 mps 758 mmHg 86%
    15:00 +28°C° 0.3 mm 4 mps 758 mmHg 89%
    16:00 +27°C° 0.3 mm 4 mps 758 mmHg 92%
    17:00 +27°C° 0.3 mm 4 mps 758 mmHg 95%
    18:00 +26°C° 0 mm 4 mps 758 mmHg 96%
    19:00 +25°C° 0 mm 4 mps 759 mmHg 98%
    20:00 +25°C° 0 mm 4 mps 759 mmHg 99%
    21:00 +25°C° 0.1 mm 4 mps 759 mmHg 99%
    22:00 +23°C° 0.1 mm 4 mps 759 mmHg 99%
    23:00 +23°C° 0.1 mm 4 mps 759 mmHg 99%
    Show more